Location: Cheyres
(46.8153°N, 6.7877°E)
Time: 13:24:29
(UTC+00:00)

BREEZE-M R/B - Pass Details

Date: 11 May 2021
Orbit: 311 x 4501 km, 49.7° (Epoch: 19 June)

Event Time Altitude Azimuth Distance (km) Brightness Sun altitude
Rises 21:00:32 0° 270° (W) 2,127 6.4 -17.0°
Reaches altitude 10° 21:02:31 10° 278° (W) 1,211 5.2 -17.2°
Maximum altitude 21:04:52 46° 354° (N) 445 2.7 -17.4°
Enters shadow 21:06:20 21° 60° (ENE) 850 3.7 -17.5°
